Regional Weather Roundup
Issued by NWS State College, PA

Home | Current Version | Previous Version | Graphics & Text | Print | Product List | Glossary Off
Versions: 1 2 3 4 5 6 7 8 9 10 11 12 13 14 15 16 17 18 19 20 21 22 23 24 25 26 27 28 29 30 31 32 33 34 35 36 37 38 39 40 41 42 43 44 45 46 47 48 49 50

000
ASUS41 KCTP 270603
RWRCTP

REGIONAL WEATHER ROUNDUP
NATIONAL WEATHER SERVICE STATE COLLEGE PA
200 AM EDT TUE JUN 27 2017

Note: "fair" indicates few or no clouds below 12,000 feet with no
significant weather and/or obstructions to visibility.

* = STATION THAT DOES NOT REPORT PRECIPITATION /E.G. RAIN...SNOW...ETC/
    THUNDER OR FOG.

PAZ002>004-007>009-013>016-020>023-029>032-270700-
WESTERN PENNSYLVANIA

CITY           SKY/WX    TMP DP  RH WIND       PRES   REMARKS
ERIE           CLOUDY    55  50  83 S10       29.96F
MEADVILLE      LGT RAIN  52  52 100 SW5       30.01F
FRANKLIN*      MOCLDY    52  46  82 NW6       30.02F
NEW CASTLE     CLOUDY    53  51  93 CALM      30.02F
BEAVER COUNTY  NOT AVBL
BUTLER*        MOCLDY    55  48  76 W5        30.01F
PITTSBURGH INT PTCLDY    58  51  78 SW6       30.01F
PITTSBURGH     CLOUDY    61  48  62 SW10      30.01S
INDIANA*       CLOUDY    55  54  94 CALM      30.03F
LATROBE        CLOUDY    57  54  88 SW3       30.02F
WASHINGTON CO* CLOUDY    55  50  82 S5        30.05S
$$

PAZ004>006-010>012-017>019-024>028-033>037-041-042-045-046-049>053-270700-
CENTRAL PENNSYLVANIA

CITY           SKY/WX    TMP DP  RH WIND       PRES   REMARKS
BRADFORD       CLEAR     45  45 100 CALM      29.99F
DUBOIS         PTCLDY    50  46  86 SE3       30.00F
CLEARFIELD     PTCLDY    50  49  96 N7        30.01F
JOHNSTOWN      CLOUDY    57  48  72 SW6       30.03F
ALTOONA        PTCLDY    59  52  77 S5        30.02F
STATE COLLEGE  PTCLDY    55  51  85 CALM      30.01F
WILLIAMSPORT   CLOUDY    58  55  90 NW3       30.00S
SELINSGROVE    CLOUDY    59  57  93 CALM      30.01F
FT INDIANTOWN  PTCLDY    58  58 100 CALM      29.99F
CAPITAL CITY   CLEAR     59  56  89 SW5       29.99F
HARRISBURG     MOCLDY    62  59  90 N3        29.99F
YORK           PTCLDY    60  58  92 CALM      30.00F
$$

PAZ038>040-043-044-047-048-054-055-060>062-067>071-270700-
EASTERN PENNSYLVANIA

CITY           SKY/WX    TMP DP  RH WIND       PRES   REMARKS
SCRANTON       CLOUDY    57  54  89 SE3       30.00F
MOUNT POCONO   MOCLDY    53  53 100 CALM      30.03F
ALLENTOWN      CLOUDY    62  55  77 CALM      29.99F
QUAKERTOWN*    CLOUDY    63  57  82 S3        30.03R
READING        CLOUDY    62  59  90 CALM      29.98F
LANCASTER      CLOUDY    64  59  83 E3        30.00F
COATESVILLE    LGT RAIN  61  59  94 CALM      30.02S
POTTSTOWN      LGT RAIN  60  58  92 CALM      30.03R
BLUE BELL      CLOUDY    63  55  77 CALM      30.03R
DOYLESTOWN     MOCLDY    64  53  67 VRB3      29.99F
WILLOW GROVE   NOT AVBL
NORTH PHILA    CLOUDY    70  53  54 NW3       30.01S
PHILADELPHIA   MOCLDY    71  54  54 N7        29.99R
$$




USA.gov is the U.S. government's official web portal to all federal, state and local government web resources and services.